Weather History for Frenchville, ME

Change the Weather History Date:

Friday, January 4, 2013

  Actual Average Record
Temperature  
Mean Temperature 7 °F 10 °F  
Max Temperature 21 °F 18 °F 43 °F (2007)
Min Temperature -7 °F 2 °F -20 °F (2014)
Degree Days  
Heating Degree Days 58    
Month to date heating degree days 249  
Since 1 July heating degree days 3660  
Cooling Degree Days 0    
Month to date cooling degree days 0  
Year to date cooling degree days 0  
Moisture  
Dew Point 7 °F    
Average Humidity 86    
Maximum Humidity 93    
Minimum Humidity 78    
Precipitation  
Precipitation T in 0.12 in 0.18 in (2000)
Month to date precipitation 0.01 0.50  
Year to date precipitation 0.01 0.50  
Sea Level Pressure  
Sea Level Pressure 29.56 in    
Wind  
Wind Speed 6 mph (South)    
Max Wind Speed 12 mph    
Max Gust Speed 15 mph    
Visibility 5 miles    
Events Snow    
T = Trace of Precipitation, MM = Missing Value Source: NWS Daily Summary

Daily Weather History Graph

Daily Weather History Graph

Search for Another Location

Airport:

Trip Planner

Search our weather history database for the weather conditions in past years. The results will help you decide how hot, cold, wet, or windy it might be!

Date:

Astronomy

Jan. 04, 2013 Rise Set
Actual Time 7:19 AM EST 3:57 PM EST
Civil Twilight 6:44 AM EST 4:32 PM EST
Nautical Twilight 6:05 AM EST 5:11 PM EST
Astronomical Twilight 5:28 AM EST 5:48 PM EST
Moon No Moon Rise 10:29 AM EST (1/4)
Length of Visible Light 9h 47m
Length of Day
8h 37m
Waning Gibbous, 55% of the Moon is Illuminated
Jan 4
Waning Gibbous
Jan 4
Last Quarter
Jan 11
New
Jan 18
First Quarter
Jan 26
Full

Hourly Weather History & Observations

Time (EST) Temp. Windchill Dew Point Humidity Pressure Visibility Wind Dir Wind Speed Gust Speed Precip Events Conditions
12:53 AM -5.1 °F -19.1 °F -9.0 °F 83% 29.81 in 10.0 mi West 6.9 mph - N/A   Clear
1:53 AM -5.1 °F -13.6 °F -9.0 °F 83% 29.80 in 10.0 mi SW 3.5 mph - N/A   Clear
2:53 AM -6.0 °F -14.7 °F -9.9 °F 83% 29.78 in 10.0 mi SSE 3.5 mph - N/A   Mostly Cloudy
3:53 AM -6.0 °F -16.9 °F -9.0 °F 87% 29.76 in 10.0 mi SSE 4.6 mph - N/A   Overcast
4:53 AM -4.0 °F -16.3 °F -9.0 °F 79% 29.74 in 10.0 mi South 5.8 mph - 0.00 in Snow Light Snow
5:53 AM -4.0 °F -17.8 °F -9.0 °F 79% 29.72 in 9.0 mi SE 6.9 mph - 0.00 in   Overcast
6:18 AM -4.0 °F -19.0 °F -9.4 °F 78% 29.64 in 10.0 mi SSE 8.1 mph - N/A   Overcast
6:38 AM -5.8 °F -19.9 °F - N/A% 29.64 in 1.8 mi SE 6.9 mph - 0.00 in Snow Light Snow
6:53 AM -4.0 °F -17.8 °F - N/A% 29.70 in 1.8 mi SSE 6.9 mph - 0.00 in Snow Light Snow
7:05 AM -2.2 °F -18.0 °F - N/A% 29.62 in 2.5 mi SSE 9.2 mph - 0.00 in Snow Light Snow
7:37 AM -2.2 °F -18.0 °F - N/A% 29.61 in 1.5 mi SSE 9.2 mph - 0.00 in Snow Light Snow
7:44 AM -2.2 °F -18.0 °F - N/A% 29.61 in 2.0 mi SSE 9.2 mph - 0.00 in Snow Light Snow
7:53 AM -2.2 °F -18.0 °F - N/A% 29.61 in 8.0 mi South 9.2 mph - N/A Snow Light Snow
8:06 AM -2.2 °F -15.6 °F - N/A% 29.61 in 1.8 mi SSE 6.9 mph - N/A Snow Light Snow
8:11 AM -2.2 °F -15.6 °F - N/A% 29.61 in 1.5 mi SSE 6.9 mph - 0.00 in Snow Light Snow
8:20 AM -2.2 °F -15.6 °F - N/A% 29.60 in 2.0 mi SSE 6.9 mph - 0.00 in Snow Light Snow
8:32 AM -2.2 °F -16.8 °F - N/A% 29.60 in 4.0 mi SSE 8.1 mph - 0.00 in Snow Light Snow
8:53 AM -0.9 °F -15.3 °F - N/A% 29.68 in 10.0 mi South 8.1 mph - 0.00 in   Overcast
9:53 AM 1.9 °F -10.6 °F -2.0 °F 83% 29.66 in 2.5 mi South 6.9 mph - 0.00 in Snow Light Snow
10:22 AM 3.2 °F -9.1 °F -0.4 °F 85% 29.56 in 1.8 mi South 6.9 mph - 0.00 in Snow Light Snow
10:33 AM 3.2 °F -9.1 °F -0.4 °F 85% 29.55 in 2.0 mi South 6.9 mph - 0.00 in Snow Light Snow
10:43 AM 3.2 °F -7.8 °F 1.4 °F 92% 29.55 in 5.0 mi South 5.8 mph - 0.00 in Snow Light Snow
10:53 AM 3.9 °F -5.3 °F 1.0 °F 88% 29.61 in 3.0 mi South 4.6 mph - 0.00 in Snow Light Snow
11:06 AM 3.2 °F -7.8 °F 1.4 °F 92% 29.53 in 2.5 mi South 5.8 mph - 0.00 in Snow Light Snow
11:13 AM 6.8 °F -4.8 °F 1.4 °F 79% 29.52 in 3.0 mi South 6.9 mph - 0.00 in Snow Light Snow
11:23 AM 6.8 °F -2.0 °F 3.2 °F 85% 29.52 in 2.0 mi South 4.6 mph - 0.00 in Snow Light Snow
11:53 AM 9.0 °F -0.9 °F 5.0 °F 84% 29.55 in 2.0 mi South 5.8 mph - 0.00 in Snow Light Snow
12:01 PM 8.6 °F 0.1 °F 6.8 °F 92% 29.48 in 1.8 mi SSE 4.6 mph - 0.00 in Snow Light Snow
12:12 PM 10.4 °F -0.4 °F 6.8 °F 85% 29.47 in 1.2 mi South 6.9 mph - 0.00 in Snow Light Snow
12:32 PM 10.4 °F 0.8 °F 8.6 °F 92% 29.46 in 1.5 mi South 5.8 mph - 0.00 in Snow Light Snow
12:53 PM 10.9 °F 2.9 °F 8.1 °F 88% 29.52 in 1.0 mi SE 4.6 mph - 0.00 in Snow Light Snow
1:03 PM 10.4 °F 2.2 °F 8.6 °F 92% 29.45 in 0.8 mi ESE 4.6 mph - 0.00 in Snow Light Snow
1:24 PM 12.2 °F 2.9 °F 8.6 °F 85% 29.44 in 1.0 mi SSE 5.8 mph - 0.00 in Snow Light Snow
1:53 PM 14.0 °F 5.1 °F 10.9 °F 88% 29.50 in 1.5 mi SSE 5.8 mph - 0.00 in Snow Light Snow
1:58 PM 14.0 °F 5.1 °F 10.4 °F 86% 29.44 in 2.0 mi South 5.8 mph - 0.00 in Snow Light Snow
2:07 PM 14.0 °F 6.5 °F 10.4 °F 86% 29.44 in 1.5 mi SSE 4.6 mph - 0.00 in Snow Light Snow
2:16 PM 15.8 °F 7.2 °F 12.2 °F 86% 29.44 in 1.0 mi South 5.8 mph - 0.00 in Snow Light Snow
2:46 PM 15.8 °F 6.1 °F 12.2 °F 86% 29.44 in 1.8 mi South 6.9 mph - 0.00 in Snow Light Snow
2:53 PM 17.1 °F 7.6 °F 14.0 °F 88% 29.50 in 1.5 mi South 6.9 mph - 0.00 in Snow Light Snow
3:06 PM 17.6 °F 9.3 °F 14.0 °F 86% 29.44 in 2.0 mi South 5.8 mph - 0.00 in Snow Light Snow
3:17 PM 17.6 °F 8.2 °F 14.0 °F 86% 29.44 in 4.0 mi South 6.9 mph - 0.00 in Snow Light Snow
3:41 PM 17.6 °F 10.7 °F 15.8 °F 93% 29.44 in 2.0 mi South 4.6 mph - 0.00 in Snow Light Snow
3:45 PM 17.6 °F 9.3 °F 15.8 °F 93% 29.44 in 1.5 mi SSE 5.8 mph - 0.00 in Snow Light Snow
3:53 PM 18.0 °F 9.8 °F 15.1 °F 88% 29.50 in 1.5 mi SSE 5.8 mph - 0.00 in Snow Light Snow
4:00 PM 17.6 °F 10.7 °F 15.8 °F 93% 29.44 in 1.8 mi South 4.6 mph - 0.00 in Snow Light Snow
4:08 PM 17.6 °F 9.3 °F 15.8 °F 93% 29.45 in 2.5 mi South 5.8 mph - 0.00 in Snow Light Snow
4:15 PM 17.6 °F 10.7 °F 15.8 °F 93% 29.45 in 4.0 mi South 4.6 mph - 0.00 in Snow Light Snow
4:53 PM 19.0 °F 12.3 °F 16.0 °F 88% 29.52 in 10.0 mi SSW 4.6 mph - 0.00 in   Overcast
5:10 PM 19.4 °F 10.4 °F 17.6 °F 93% 29.46 in 10.0 mi SSW 6.9 mph - N/A   Overcast
5:53 PM 19.0 °F 11.1 °F 16.0 °F 88% 29.53 in 10.0 mi WSW 5.8 mph - N/A   Overcast
6:53 PM 19.0 °F 10.0 °F 16.0 °F 88% 29.53 in 10.0 mi West 6.9 mph - N/A   Overcast
7:53 PM 19.9 °F 8.6 °F 15.1 °F 81% 29.54 in 10.0 mi West 10.4 mph - N/A   Overcast
8:53 PM 19.0 °F 11.1 °F 15.1 °F 85% 29.53 in 10.0 mi WSW 5.8 mph - N/A   Overcast
9:53 PM 18.0 °F 8.7 °F 12.9 °F 81% 29.55 in 10.0 mi West 6.9 mph - N/A   Partly Cloudy
10:53 PM 19.0 °F 8.2 °F 14.0 °F 81% 29.55 in 10.0 mi WSW 9.2 mph - N/A   Mostly Cloudy
11:53 PM 18.0 °F 9.8 °F 12.9 °F 81% 29.54 in 10.0 mi WSW 5.8 mph - N/A   Overcast